RYR27BA EGSS-LOWK

Flight info

Callsign RYR27BA
Flight time N/A
Altitude 35000
Route CLN5S CLN M84 KONAN DCT KOK DCT DENOX DCT REMBA UL607 SPI DCT ULNOK DCT VIBOM DCT NOMBO DCT RIDAR DCT LATLO DCT OBEDI DCT TISMA TISMA1T
Aircraft B738/M-SDE2E3FGHIRWXY/LB1

Departure

Time N/A
Airport London Stansted Airport (EGSS)

Arrival

Time 2026-05-06 03:28
Airport Klagenfurt Airport (LOWK)
Time Latitude Longitude Altitude Speed Heading
2026-05-06 03:10 47.08799 13.80771 16966 ft 344 kts 130°
2026-05-06 03:10 47.07382 13.83568 16661 ft 340 kts 130°
2026-05-06 03:10 47.05974 13.86355 16323 ft 338 kts 130°
2026-05-06 03:11 47.04591 13.89076 16019 ft 336 kts 130°
2026-05-06 03:11 47.03205 13.91812 15725 ft 333 kts 130°
2026-05-06 03:11 47.01824 13.94532 15385 ft 332 kts 130°
2026-05-06 03:11 47.00451 13.97234 15086 ft 330 kts 130°
2026-05-06 03:12 46.99063 13.99915 14753 ft 329 kts 129°
2026-05-06 03:12 46.97707 14.02593 14446 ft 327 kts 129°
2026-05-06 03:12 46.96359 14.05244 14115 ft 324 kts 130°
2026-05-06 03:12 46.95045 14.07831 13841 ft 318 kts 130°
2026-05-06 03:13 46.93722 14.10419 13554 ft 317 kts 130°
2026-05-06 03:13 46.92410 14.12989 13269 ft 314 kts 130°
2026-05-06 03:13 46.90866 14.15143 12978 ft 301 kts 157°
2026-05-06 03:13 46.88920 14.15922 12788 ft 286 kts 177°
2026-05-06 03:14 46.86953 14.16053 12519 ft 283 kts 185°
2026-05-06 03:14 46.84996 14.15960 12254 ft 280 kts 186°
2026-05-06 03:14 46.83051 14.15877 11999 ft 279 kts 185°
2026-05-06 03:14 46.81113 14.15826 11762 ft 278 kts 185°
2026-05-06 03:15 46.79210 14.15779 11505 ft 276 kts 185°
2026-05-06 03:15 46.77306 14.15955 11230 ft 279 kts 168°
2026-05-06 03:15 46.75601 14.17345 11024 ft 284 kts 142°
2026-05-06 03:15 46.74283 14.19421 10968 ft 273 kts 134°
2026-05-06 03:16 46.73105 14.21496 10873 ft 258 kts 134°
2026-05-06 03:16 46.71989 14.23461 10768 ft 245 kts 135°
2026-05-06 03:16 46.70855 14.25172 10647 ft 224 kts 154°
2026-05-06 03:16 46.69477 14.25800 10523 ft 197 kts 178°
2026-05-06 03:17 46.68105 14.26049 10131 ft 194 kts 180°
2026-05-06 03:17 46.66760 14.26290 9943 ft 199 kts 180°
2026-05-06 03:17 46.65328 14.26544 9783 ft 216 kts 180°
2026-05-06 03:17 46.63841 14.26933 9624 ft 223 kts 163°
2026-05-06 03:18 46.62686 14.28496 9328 ft 239 kts 120°
2026-05-06 03:18 46.62415 14.30883 9098 ft 243 kts 90°
2026-05-06 03:18 46.62610 14.33355 8938 ft 249 kts 80°
2026-05-06 03:18 46.63040 14.35764 8942 ft 245 kts 74°
2026-05-06 03:19 46.63723 14.38035 8907 ft 247 kts 47°
2026-05-06 03:19 46.65099 14.39311 8806 ft 239 kts 11°
2026-05-06 03:19 46.66692 14.39894 8575 ft 237 kts
2026-05-06 03:19 46.68299 14.40490 8341 ft 236 kts
2026-05-06 03:20 46.70663 14.43358 7874 ft 235 kts 80°
2026-05-06 03:20 46.70594 14.45723 7655 ft 236 kts 104°
2026-05-06 03:20 46.70173 14.48032 7391 ft 236 kts 110°
2026-05-06 03:21 46.69676 14.50313 7172 ft 237 kts 111°
2026-05-06 03:21 46.69202 14.52608 6948 ft 237 kts 110°
2026-05-06 03:21 46.68736 14.54854 6746 ft 231 kts 110°
2026-05-06 03:21 46.68277 14.57073 6539 ft 228 kts 110°
2026-05-06 03:22 46.67827 14.59290 6352 ft 231 kts 110°
2026-05-06 03:22 46.67217 14.61410 6100 ft 224 kts 130°
2026-05-06 03:22 46.66122 14.62831 5920 ft 205 kts 159°
2026-05-06 03:22 46.64767 14.63236 5691 ft 196 kts 186°
2026-05-06 03:23 46.63453 14.62902 5461 ft 191 kts 200°
2026-05-06 03:23 46.62196 14.62362 5250 ft 187 kts 200°
2026-05-06 03:23 46.60938 14.61825 5047 ft 189 kts 200°
2026-05-06 03:23 46.59876 14.60807 4818 ft 187 kts 232°
2026-05-06 03:24 46.59415 14.59066 4643 ft 188 kts 263°
2026-05-06 03:24 46.59654 14.57193 4531 ft 190 kts 283°
2026-05-06 03:24 46.59984 14.55306 4238 ft 192 kts 281°
2026-05-06 03:24 46.60326 14.53458 3961 ft 183 kts 283°
2026-05-06 03:25 46.60665 14.51733 3690 ft 171 kts 284°
2026-05-06 03:25 46.60984 14.50150 3520 ft 163 kts 284°
2026-05-06 03:25 46.61298 14.48559 3277 ft 162 kts 284°
2026-05-06 03:25 46.61605 14.47019 3073 ft 159 kts 284°
2026-05-06 03:26 46.61901 14.45488 2869 ft 156 kts 285°
2026-05-06 03:26 46.62208 14.43982 2687 ft 156 kts 284°
2026-05-06 03:26 46.62500 14.42458 2489 ft 156 kts 283°
2026-05-06 03:26 46.62791 14.40954 2300 ft 153 kts 283°
2026-05-06 03:27 46.63083 14.39448 2053 ft 154 kts 284°
2026-05-06 03:27 46.63405 14.37958 1815 ft 155 kts 285°
2026-05-06 03:27 46.63715 14.36450 1668 ft 153 kts 284°
2026-05-06 03:27 46.64007 14.34996 1468 ft 147 kts 284°
2026-05-06 03:28 46.64255 14.33755 1462 ft 102 kts 286°
2026-05-06 03:28 46.64391 14.33090 1461 ft 32 kts 287°
2026-05-06 03:28 46.64468 14.32876 1462 ft 20 kts 334°
2026-05-06 03:28 46.64583 14.32799 1460 ft 14 kts 335°
2026-05-06 03:29 46.64639 14.32749 1461 ft 8 kts 321°
2026-05-06 03:29 46.64677 14.32699 1458 ft 7 kts 317°
2026-05-06 03:29 46.64710 14.32663 1460 ft 5 kts 330°
2026-05-06 03:29 46.64744 14.32644 1463 ft 5 kts 342°
2026-05-06 03:30 46.64766 14.32635 1463 ft 2 kts 344°
2026-05-06 03:30 46.64774 14.32632 1463 ft 0 kts 344°
2026-05-06 03:32 46.64783 14.32629 1463 ft 2 kts 345°
2026-05-06 03:32 46.64800 14.32622 1463 ft 3 kts 346°
2026-05-06 03:32 46.64823 14.32614 1459 ft 4 kts 346°
2026-05-06 03:33 46.64860 14.32611 1460 ft 7 kts 359°
2026-05-06 03:33 46.64910 14.32596 1457 ft 8 kts 329°
2026-05-06 03:33 46.64927 14.32528 1463 ft 7 kts 266°
2026-05-06 03:33 46.64910 14.32488 1463 ft 7 kts 219°
2026-05-06 03:34 46.64877 14.32481 1456 ft 3 kts 124°
2026-05-06 03:34 46.64877 14.32510 1458 ft 3 kts 77°
2026-05-06 03:34 46.64879 14.32523 1463 ft 0 kts 78°